Regional Weather Roundup
Issued by NWS

Home | Current Version | Previous Version | Graphics & Text | Print | Product List | Glossary On
Versions: 1 2 3 4 5 6 7 8 9 10 11 12 13 14 15 16 17 18 19 20 21 22 23 24 25 26 27 28 29 30 31 32 33 34 35 36 37 38 39 40 41 42 43 44 45 46 47 48 49 50
000
ASUS43 KIND 231709
RWRIN

WEATHER ROUNDUP FOR INDIANA
NATIONAL WEATHER SERVICE INDIANAPOLIS IN
1200 PM EST SUN NOV 23 2014

NOTE: "FAIR" INDICATES FEW OR NO CLOUDS BELOW 12,000 FEET WITH NO
SIGNIFICANT WEATHER AND/OR OBSTRUCTIONS TO VISIBILITY.

* - STATION DOES NOT REPORT WEATHER SUCH AS PRECIPITATION OR FOG.

+ - STATION NOT QUALITY CONTROLLED BY THE NATIONAL WEATHER SERVICE.
    USE DATA WITH CAUTION...ESPECIALLY DEWPOINT AND RELATIVE
    HUMIDITY OBSERVATIONS.

INZ001>003-010>013-019-020-231800-
NORTHWEST INDIANA

CITY           SKY/WX    TMP DP  RH WIND       PRES   REMARKS
GARY /AIRPORT/ CLOUDY    54  45  71 S9        29.72F
KNOX *+        CLOUDY    49  44  80 SE10      29.73F
LA PORTE +     DRIZZLE   51  46  83 S7        29.74F
MICHIGAN CITY+ CLOUDY    50  41  71 S7        29.73F
MONTICELLO +   CLOUDY    52  46  78 S6        29.74F
RENSSELAER +   CLOUDY    50  46  87 SE7       29.72F
VALPARAISO     CLOUDY    50  44  80 SE9       29.73F

$$

LMZ046-743>745-231800-
SOUTHERN LAKE MICHIGAN

STATION/POSITION TIME  TEMP WIND        PRES
                       AIR  DIR/SP/G
                 (UTC) (F)  (DEG/KT/KT) (MB)
MICHIGAN CITY    1700   51  150/ 13/ 18   N/A

$$

INZ004-005-014>016-021>024-231800-
NORTH CENTRAL INDIANA

CITY           SKY/WX    TMP DP  RH WIND       PRES   REMARKS
GOSHEN         CLOUDY    54  46  74 S10       29.78F
LOGANSPORT +   CLOUDY    54  45  71 S10       29.76F
PERU/GRISSOM   CLOUDY    54  51  90 S13       29.76F
ROCHESTER +    CLOUDY    54  45  71 SE7       29.76F
SOUTH BEND     CLOUDY    53  45  74 S8        29.76F
WARSAW +       CLOUDY    52  43  71 S8        29.78F

$$

INZ006>009-017-018-025>027-231800-
NORTHEAST INDIANA

CITY           SKY/WX    TMP DP  RH WIND       PRES   REMARKS
ANGOLA *+      MOSUNNY   48  37  66 SE6       29.80F
AUBURN +       CLOUDY    52  43  71 CALM      29.82F
FORT WAYNE     CLOUDY    54  46  74 SE10      29.81F
HUNTINGTON +   CLOUDY    55  47  72 S9        29.78F

$$

INZ028-029-035-036-043>045-051>053-231800-
WEST CENTRAL INDIANA

CITY           SKY/WX    TMP DP  RH WIND       PRES   REMARKS
GREENCASTLE +  CLOUDY    50  46  87 S14       29.77F FOG
LAFAYETTE      CLOUDY    55  46  71 S7        29.73F
TERRE HAUTE    CLOUDY    52  49  89 SE10      29.73F

$$

INZ030>032-037>040-046>048-054>057-064-065-231800-
CENTRAL INDIANA

CITY           SKY/WX    TMP DP  RH WIND       PRES   REMARKS
CP ATTERBURY + RAIN      54  46  76 S8        29.78F
COLUMBUS       LGT RAIN  55  48  76 S14       29.79F FOG
FRANKFORT +    CLOUDY    55  48  77 SE8       29.76F
GREENWOOD *+   CLOUDY    52  43  71 S15G22    29.79
INDIANAPOLIS   RAIN      50  46  86 SE9       29.76F FOG
-EAGLE CREEK   RAIN      52  46  80 S8G16     29.77F
KOKOMO *+      CLOUDY    54  46  76 S18       29.76F
MARION +       CLOUDY    56  46  70 S15       29.78F
MT COMFORT *+  CLOUDY    54  39  58 S9G17     29.79F
SHELBYVILLE    CLOUDY    59  46  62 SE12      29.78F
ZIONSVILLE +   CLOUDY    55  44  64 S15G24    29.77F

$$

INZ033-034-041-042-049-050-058-059-231800-
EAST CENTRAL INDIANA

CITY           SKY/WX    TMP DP  RH WIND       PRES   REMARKS
MUNCIE         PTSUNNY   58  47  66 S17G25    29.79F

$$

INZ060-061-067>069-081>083-085>088-231800-
SOUTHWEST INDIANA

CITY           SKY/WX    TMP DP  RH WIND       PRES   REMARKS
EVANSVILLE     CLOUDY    53  48  83 E3        29.73F
HUNTINGBURG *+ CLOUDY    54  48  82 SE12      29.74F
WASHINGTON +   CLOUDY    52  52 100 E7        29.72F

$$

INZ062-063-066-070>080-084-089>092-231800-
SOUTH CENTRAL AND SOUTHEAST INDIANA

CITY           SKY/WX    TMP DP  RH WIND       PRES   REMARKS
BLOOMINGTON    LGT RAIN  51  49  92 SE8       29.75F
NORTH VERNON + LGT RAIN  57  45  62 SE9       29.80

$$




USA.gov is the U.S. government's official web portal to all federal, state and local government web resources and services.